Notices

What's New in latest Release from April 7th, 2021:

- Updated Glossary, including Speed of Maximum Gust, and Total Hourly Precipitation

- Updated national and regional climate services offices contacts and prices information

- Addition of station inventory lists for 1981-2010, 1971-2000, and 1961-1990 Normals.

If you haven't already, please take our survey and provide feedback about our website: https://eccc.sondage-survey.ca/f/LanguageSelection.aspx?s=442ca660-fcf1-47c0-95a9-59707d6fd709

Hourly Data Report for October 21, 2019

EUREKA CLIMATE
NUNAVUT
Current Station Operator: ECCC - MSC

79°59'21.000" N
85°56'02.000" W
10.00 m
2401199
71613
NEK

Download Data

Hourly Data (October 2019)
Hourly Data Report for October 21, 2019
TIME
LST
Temp Definition
°C
Dew Point Definition
°C
Rel Hum Definition
%
Precip. Amount Definition
mm

Wind Dir Definition
10's deg

Wind Spd Definition
km/h
Visibility Definition
km
Stn Press Definition
kPa
Hmdx Definition


Wind Chill Definition


Weather Definition


00:00 -19.8 -21.4 87 0.0 2 7   103.14   -25 LegendNANA
01:00 -19.2 -20.7 87 0.0 8 2   103.16   -21 LegendNANA
02:00 -19.3 -20.9 87 0.0 1 4   103.15   -23 LegendNANA
03:00 -18.7 -20.3 88 0.0 0 1   103.14   -20 LegendNANA
04:00 -18.8 -20.2 88 0.0 19 1   103.14   -20 LegendNANA
05:00 -18.8 -20.2 88 0.0 19 3   103.14   -21 LegendNANA
06:00 -19.3 -20.8 88 0.0 17 5   103.12   -23 LegendNANA
07:00 -19.1 -20.6 88 0.0 17 3   103.10   -22 LegendNANA
08:00 -18.8 -20.4 88 0.0 16 5   103.10   -23 LegendNANA
09:00 -18.7 -20.2 88 0.0 20 5   103.08   -23 LegendNANA
10:00 -18.8 -20.3 88 0.0 19 4   103.06   -22 LegendNANA
11:00 -18.4 -19.8 88 0.0   0   103.01     LegendNANA
12:00 -17.8 -19.2 89 0.0   0   103.00     LegendNANA
13:00 -17.6 -19.0 89 0.0 33 2   103.01   -19 LegendNANA
14:00 -19.1 -20.6 88 0.0 1 6   102.99   -24 LegendNANA
15:00 -20.7 -22.4 86 0.0 2 6   102.95   -26 LegendNANA
16:00 -21.4 -23.2 86 0.2 2 4   102.92   -25 LegendNANA
17:00 -20.8 -22.5 86 0.0 2 4   102.89   -24 LegendNANA
18:00 -21.5 -23.4 85 0.0 3 3   102.87   -24 LegendNANA
19:00 -22.9 -24.9 84 0.0 2 1   102.83   -24 LegendNANA
20:00 -21.8 -23.7 85 0.0   0   102.80     LegendNANA
21:00 -23.8 -25.9 83 0.0 5 2   102.74   -26 LegendNANA
22:00 -23.0 -25.0 84 0.0 3 1   102.71   -24 LegendNANA
23:00 -23.5 -25.5 83 0.0 6 2   102.66   -25 LegendNANA

Notes on Data Quality.

Legend

  • E = Estimated
  • M = Missing
  • NA = Not Available*
  • [empty] = Indicates an unobserved value
Date modified: